Cando, ND

10:45 AM CST on November 12, 2019 (GMT -0600)
Cando

Weather History for K9D7 - October, 2019

Change the Weather History Date:

Wednesday, October 23, 2019

  Actual Average (KDVL) Record (KDVL)
Temperature  
Mean Temperature 32 °F -  
Max Temperature 41 °F 50 °F 79 °F (1963)
Min Temperature 23 °F 31 °F 12 °F (1976)
Degree Days  
Heating Degree Days 32    
Moisture  
Dew Point 24 °F    
Average Humidity 74    
Maximum Humidity 100    
Minimum Humidity 42    
Precipitation  
Precipitation 0.00 in - - ()
Sea Level Pressure  
Sea Level Pressure 30.01 in    
Wind  
Wind Speed 12 mph (NNW)    
Max Wind Speed 22 mph    
Max Gust Speed 30 mph    
Visibility 10 miles    
Events      
Averages and records for this station are not official NWS values.
T = Trace of Precipitation, MM = Missing Value Source: NWS Daily Summary

Daily Weather History Graph

Daily Weather History Graph

Search for Another Location

Airport or City:

Astronomy

Oct. 23, 2019 Rise Set
Actual Time 8:08 AM CDT 6:33 PM CDT
Civil Twilight 7:36 AM CDT 7:05 PM CDT
Nautical Twilight 7:00 AM CDT 7:41 PM CDT
Astronomical Twilight 6:23 AM CDT 8:17 PM CDT
Moon 1:53 AM CDT (10/23) 4:55 PM CDT (10/23)
Length of Visible Light 11h 28m
Length of Day
10h 24m
Waning Crescent, 26% of the Moon is Illuminated
Oct 23
Waning Crescent
Oct 27
New
Nov 4
First Quarter
Nov 12
Full
Nov 19
Last Quarter

Hourly Weather History & Observations

Time (CDT) Temp. Windchill Dew Point Humidity Pressure Visibility Wind Dir Wind Speed Gust Speed Precip Events Conditions
12:15 AM 28.4 °F 19.7 °F 24.8 °F 86% 29.80 in 10.0 mi North 9.2 mph - N/A   Clear
12:35 AM 28.4 °F 18.5 °F 26.6 °F 93% 29.80 in 10.0 mi North 11.5 mph - N/A   Clear
12:55 AM 28.4 °F 19.1 °F 26.6 °F 93% 29.80 in 10.0 mi North 10.4 mph - N/A   Clear
1:15 AM 28.4 °F 18.5 °F 26.6 °F 93% 29.81 in 10.0 mi North 11.5 mph - N/A   Clear
1:35 AM 28.4 °F 19.7 °F 26.6 °F 93% 29.81 in 10.0 mi NNW 9.2 mph - N/A   Clear
1:55 AM 26.6 °F 18.2 °F 26.6 °F 100% 29.82 in 10.0 mi NW 8.1 mph - N/A   Clear
2:15 AM 26.6 °F 18.2 °F 26.6 °F 100% 29.83 in 10.0 mi WNW 8.1 mph - N/A   Clear
2:35 AM 24.8 °F 14.6 °F 24.8 °F 100% 29.83 in 10.0 mi WNW 10.4 mph - N/A   Clear
2:55 AM 26.6 °F 16.2 °F 26.6 °F 100% 29.83 in 10.0 mi NW 11.5 mph - N/A   Clear
3:15 AM 26.6 °F 16.8 °F 26.6 °F 100% 29.84 in 10.0 mi NW 10.4 mph - N/A   Clear
3:35 AM 26.6 °F 16.8 °F 26.6 °F 100% 29.84 in 10.0 mi NW 10.4 mph - N/A   Clear
3:55 AM - - - N/A% 29.85 in 10.0 mi NW 10.4 mph - N/A   Clear
4:15 AM 24.8 °F 15.3 °F 24.8 °F 100% 29.86 in 10.0 mi NW 9.2 mph - N/A   Clear
4:35 AM 24.8 °F 14.6 °F 24.8 °F 100% 29.86 in 10.0 mi NW 10.4 mph - N/A   Partly Cloudy
4:55 AM 26.6 °F 17.5 °F 26.6 °F 100% 29.87 in 10.0 mi NNW 9.2 mph - N/A   Mostly Cloudy
5:15 AM 28.4 °F 18.0 °F 28.4 °F 100% 29.87 in 10.0 mi NNW 12.7 mph - N/A   Overcast
5:35 AM 30.2 °F 18.5 °F 30.2 °F 100% 29.87 in 10.0 mi NNW 17.3 mph - N/A   Overcast
5:55 AM 30.2 °F 19.8 °F 30.2 °F 100% 29.88 in 10.0 mi NNW 13.8 mph 19.6 mph N/A   Overcast
6:15 AM 30.2 °F 19.8 °F 28.4 °F 93% 29.89 in 10.0 mi NNW 13.8 mph - N/A   Overcast
6:35 AM 30.2 °F 19.3 °F 26.6 °F 86% 29.90 in 10.0 mi NNW 15.0 mph - N/A   Overcast
6:55 AM 30.2 °F 20.2 °F 24.8 °F 80% 29.91 in 10.0 mi NNW 12.7 mph 21.9 mph N/A   Mostly Cloudy
7:15 AM 28.4 °F 18.5 °F 24.8 °F 86% 29.91 in 10.0 mi NNW 11.5 mph - N/A   Mostly Cloudy
7:35 AM 30.2 °F 19.3 °F 24.8 °F 80% 29.92 in 10.0 mi NNW 15.0 mph - N/A   Overcast
7:55 AM 30.2 °F 18.9 °F 24.8 °F 80% 29.93 in 10.0 mi NNW 16.1 mph - N/A   Overcast
8:15 AM 28.4 °F 18.0 °F 23.0 °F 80% 29.93 in 10.0 mi NNW 12.7 mph - N/A   Mostly Cloudy
8:35 AM 28.4 °F 16.6 °F 23.0 °F 80% 29.95 in 10.0 mi NNW 16.1 mph - N/A   Partly Cloudy
8:55 AM 28.4 °F 18.0 °F 23.0 °F 80% 29.96 in 10.0 mi NNW 12.7 mph - N/A   Clear
9:15 AM 30.2 °F 20.2 °F 23.0 °F 75% 29.97 in 10.0 mi NNW 12.7 mph - N/A   Clear
9:35 AM 30.2 °F 18.5 °F 21.2 °F 69% 29.98 in 10.0 mi NNW 17.3 mph - N/A   Clear
10:15 AM 32.0 °F 22.1 °F 23.0 °F 69% 30.00 in 10.0 mi NNW 13.8 mph 20.7 mph N/A   Clear
10:35 AM 33.8 °F 22.8 °F 23.0 °F 65% 30.00 in 10.0 mi NNW 18.4 mph 24.2 mph N/A   Clear
10:55 AM 35.6 °F 25.2 °F 21.2 °F 56% 30.01 in 10.0 mi NNW 18.4 mph - N/A   Clear
11:15 AM 35.6 °F 25.5 °F 21.2 °F 56% 30.02 in 10.0 mi North 17.3 mph - N/A   Clear
11:35 AM 35.6 °F 24.5 °F 21.2 °F 56% 30.03 in 10.0 mi North 20.7 mph - N/A   Clear
11:55 AM 35.6 °F 24.8 °F 21.2 °F 56% 30.03 in 10.0 mi North 19.6 mph 27.6 mph N/A   Clear
12:15 PM 37.4 °F 27.8 °F 21.2 °F 52% 30.04 in 10.0 mi NNW 17.3 mph 24.2 mph N/A   Partly Cloudy
12:35 PM 37.4 °F 26.9 °F 21.2 °F 52% 30.05 in 10.0 mi NNW 20.7 mph 26.5 mph N/A   Scattered Clouds
12:55 PM 39.2 °F 29.0 °F 21.2 °F 49% 30.05 in 10.0 mi North 21.9 mph 29.9 mph N/A   Partly Cloudy
1:15 PM 39.2 °F 29.8 °F 21.2 °F 49% 30.06 in 10.0 mi North 18.4 mph 27.6 mph N/A   Partly Cloudy
1:35 PM 39.2 °F 29.6 °F 19.4 °F 45% 30.05 in 10.0 mi North 19.6 mph 26.5 mph N/A   Partly Cloudy
1:55 PM 41.0 °F 32.2 °F 21.2 °F 45% 30.06 in 10.0 mi NNW 18.4 mph 25.3 mph N/A   Partly Cloudy
2:15 PM 39.2 °F 29.6 °F 21.2 °F 49% 30.06 in 10.0 mi NNW 19.6 mph 27.6 mph N/A   Partly Cloudy
2:35 PM 41.0 °F 31.4 °F 19.4 °F 42% 30.06 in 10.0 mi North 21.9 mph 27.6 mph N/A   Clear
2:55 PM 39.2 °F 30.2 °F 19.4 °F 45% 30.07 in 10.0 mi NNW 17.3 mph 24.2 mph N/A   Scattered Clouds
3:15 PM 39.2 °F 30.5 °F 19.4 °F 45% 30.07 in 10.0 mi NNW 16.1 mph 27.6 mph N/A   Mostly Cloudy
3:35 PM 41.0 °F 33.1 °F 21.2 °F 45% 30.08 in 10.0 mi NNW 15.0 mph 25.3 mph N/A   Overcast
3:55 PM 39.2 °F 29.3 °F 19.4 °F 45% 30.09 in 10.0 mi NNW 20.7 mph 28.8 mph N/A   Overcast
4:15 PM 39.2 °F 29.3 °F 19.4 °F 45% 30.09 in 10.0 mi NNW 20.7 mph 26.5 mph N/A   Overcast
4:35 PM 39.2 °F 30.2 °F 19.4 °F 45% 30.10 in 10.0 mi NNW 17.3 mph - N/A   Overcast
4:55 PM 39.2 °F 30.8 °F 19.4 °F 45% 30.11 in 10.0 mi NNW 15.0 mph - N/A   Overcast
5:15 PM 39.2 °F 31.6 °F 21.2 °F 49% 30.12 in 10.0 mi NNW 12.7 mph - N/A   Overcast
5:55 PM 37.4 °F 32.1 °F 21.2 °F 52% 30.12 in 10.0 mi NW 6.9 mph - N/A   Overcast
6:15 PM 37.4 °F 33.8 °F 21.2 °F 52% 30.13 in 10.0 mi NW 4.6 mph - N/A   Overcast
6:35 PM 37.4 °F 32.8 °F 23.0 °F 56% 30.13 in 10.0 mi NW 5.8 mph - N/A   Overcast
6:55 PM 37.4 °F 32.8 °F 23.0 °F 56% 30.14 in 10.0 mi NW 5.8 mph - N/A   Overcast
7:15 PM 35.6 °F 30.7 °F 24.8 °F 65% 30.15 in 10.0 mi NW 5.8 mph - N/A   Overcast
7:35 PM 35.6 °F 29.9 °F 24.8 °F 65% 30.15 in 10.0 mi NNW 6.9 mph - N/A   Overcast
7:55 PM 35.6 °F 30.7 °F 24.8 °F 65% 30.16 in 10.0 mi NNW 5.8 mph - N/A   Overcast
8:15 PM 32.0 °F 25.6 °F 23.0 °F 69% 30.17 in 10.0 mi NW 6.9 mph - N/A   Mostly Cloudy
8:35 PM 33.8 °F 26.4 °F 23.0 °F 65% 30.18 in 10.0 mi NNW 9.2 mph - N/A   Mostly Cloudy
8:55 PM 32.0 °F 24.2 °F 24.8 °F 75% 30.18 in 10.0 mi NNW 9.2 mph - N/A   Scattered Clouds
9:15 PM 30.2 °F 21.9 °F 23.0 °F 75% 30.19 in 10.0 mi NNW 9.2 mph - N/A   Partly Cloudy
9:35 PM 30.2 °F 21.9 °F 23.0 °F 75% 30.19 in 10.0 mi NNW 9.2 mph - N/A   Clear
9:55 PM 28.4 °F 20.4 °F 24.8 °F 86% 30.20 in 10.0 mi NW 8.1 mph - N/A   Clear
10:15 PM 26.6 °F 19.1 °F 24.8 °F 93% 30.21 in 10.0 mi North 6.9 mph - N/A   Partly Cloudy
10:35 PM 26.6 °F 19.1 °F 26.6 °F 100% 30.22 in 10.0 mi North 6.9 mph - N/A   Partly Cloudy
10:55 PM 26.6 °F 19.1 °F 26.6 °F 100% 30.22 in 10.0 mi North 6.9 mph - N/A   Clear
11:15 PM - - - N/A% 30.23 in 10.0 mi North 5.8 mph - N/A   Clear
11:35 PM 24.8 °F 19.1 °F 24.8 °F 100% 30.24 in 10.0 mi West 4.6 mph - N/A   Clear
11:55 PM 23.0 °F 14.7 °F 23.0 °F 100% 30.24 in 10.0 mi NW 6.9 mph - N/A   Clear